Year,Month,Day,Hour,Minute,Value (Times are PST for temperature in C)
2016,01,22,00,00,10.10
2016,01,22,00,01,10.10
2016,01,22,00,02,10.10
2016,01,22,00,03,10.10
2016,01,22,00,04,10.10
2016,01,22,00,05,10.10
2016,01,22,00,06,10.10
2016,01,22,00,07,10.10
2016,01,22,00,08,10.10
2016,01,22,00,09,10.00
2016,01,22,00,10,10.00
2016,01,22,00,11,10.00
2016,01,22,00,12,10.00
2016,01,22,00,13,10.00
2016,01,22,00,14,10.00
2016,01,22,00,15,10.00
2016,01,22,00,16,9.90
2016,01,22,00,17,9.90
2016,01,22,00,18,9.90
2016,01,22,00,19,9.90
2016,01,22,00,20,9.90
2016,01,22,00,21,9.90
2016,01,22,00,22,9.90
2016,01,22,00,23,9.90
2016,01,22,00,24,9.90
2016,01,22,00,25,9.90
2016,01,22,00,26,9.90
2016,01,22,00,27,9.80
2016,01,22,00,28,9.80
2016,01,22,00,29,9.80
2016,01,22,00,30,9.80
2016,01,22,00,31,9.80
2016,01,22,00,32,9.80
2016,01,22,00,33,9.80
2016,01,22,00,34,9.80
2016,01,22,00,35,9.80
2016,01,22,00,36,9.80
2016,01,22,00,37,9.80
2016,01,22,00,38,9.80
2016,01,22,00,39,9.80
2016,01,22,00,40,9.80
2016,01,22,00,41,9.80
2016,01,22,00,42,9.80
2016,01,22,00,43,9.80
2016,01,22,00,44,9.80
2016,01,22,00,45,9.80
2016,01,22,00,46,9.80
2016,01,22,00,47,9.80
2016,01,22,00,48,9.80
2016,01,22,00,49,9.80
2016,01,22,00,50,9.80
2016,01,22,00,51,9.80
2016,01,22,00,52,9.80
2016,01,22,00,53,9.80
2016,01,22,00,54,9.80
2016,01,22,00,55,9.80
2016,01,22,00,56,9.80
2016,01,22,00,57,9.80
2016,01,22,00,58,9.80
2016,01,22,00,59,9.80
2016,01,22,01,00,9.80
2016,01,22,01,01,9.80
2016,01,22,01,02,9.80
2016,01,22,01,03,9.80
2016,01,22,01,04,9.80
2016,01,22,01,05,9.80
2016,01,22,01,06,9.80
2016,01,22,01,07,9.80
2016,01,22,01,08,9.80
2016,01,22,01,09,9.80
2016,01,22,01,10,9.80
2016,01,22,01,11,9.80
2016,01,22,01,12,9.80
2016,01,22,01,13,9.80
2016,01,22,01,14,9.80
2016,01,22,01,15,9.80
2016,01,22,01,16,9.80
2016,01,22,01,17,9.80
2016,01,22,01,18,9.80
2016,01,22,01,19,9.80
2016,01,22,01,20,9.80
2016,01,22,01,21,9.80
2016,01,22,01,22,9.80
2016,01,22,01,23,9.80
2016,01,22,01,24,9.80
2016,01,22,01,25,9.80
2016,01,22,01,26,9.80
2016,01,22,01,27,9.80
2016,01,22,01,28,9.80
2016,01,22,01,29,9.80
2016,01,22,01,30,9.80
2016,01,22,01,31,9.80
2016,01,22,01,32,9.80
2016,01,22,01,33,9.80
2016,01,22,01,34,9.80
2016,01,22,01,35,9.80
2016,01,22,01,36,9.80
2016,01,22,01,37,9.80
2016,01,22,01,38,9.80
2016,01,22,01,39,9.80
2016,01,22,01,40,9.80
2016,01,22,01,41,9.80
2016,01,22,01,42,9.80
2016,01,22,01,43,9.80
2016,01,22,01,44,9.80
2016,01,22,01,45,9.80
2016,01,22,01,46,9.80
2016,01,22,01,47,9.80
2016,01,22,01,48,9.80
2016,01,22,01,49,9.80
2016,01,22,01,50,9.80
2016,01,22,01,51,9.80
2016,01,22,01,52,9.90
2016,01,22,01,53,9.90
2016,01,22,01,54,9.90
2016,01,22,01,55,9.90
2016,01,22,01,56,9.90
2016,01,22,01,57,9.90
2016,01,22,01,58,9.90
2016,01,22,01,59,9.90
2016,01,22,02,00,9.90
2016,01,22,02,01,9.90
2016,01,22,02,02,9.90
2016,01,22,02,03,9.90
2016,01,22,02,04,9.90
2016,01,22,02,05,9.90
2016,01,22,02,06,9.90
2016,01,22,02,07,9.90
2016,01,22,02,08,9.90
2016,01,22,02,09,10.00
2016,01,22,02,10,10.00
2016,01,22,02,11,10.00
2016,01,22,02,12,10.00
2016,01,22,02,13,10.00
2016,01,22,02,14,10.00
2016,01,22,02,15,10.00
2016,01,22,02,16,10.00
2016,01,22,02,17,10.00
2016,01,22,02,18,10.00
2016,01,22,02,19,10.00
2016,01,22,02,20,10.00
2016,01,22,02,21,10.10
2016,01,22,02,22,10.00
2016,01,22,02,23,10.00
2016,01,22,02,24,10.00
2016,01,22,02,25,10.00
2016,01,22,02,26,10.00
2016,01,22,02,27,10.00
2016,01,22,02,28,10.00
2016,01,22,02,29,9.90
2016,01,22,02,30,9.90
2016,01,22,02,31,9.90
2016,01,22,02,32,9.90
2016,01,22,02,33,9.90
2016,01,22,02,34,9.90
2016,01,22,02,35,9.90
2016,01,22,02,36,9.90
2016,01,22,02,37,9.80
2016,01,22,02,38,9.80
2016,01,22,02,39,9.80
2016,01,22,02,40,9.80
2016,01,22,02,41,9.80
2016,01,22,02,42,9.80
2016,01,22,02,43,9.80
2016,01,22,02,44,9.80
2016,01,22,02,45,9.80
2016,01,22,02,46,9.80
2016,01,22,02,47,9.80
2016,01,22,02,48,9.80
2016,01,22,02,49,9.80
2016,01,22,02,50,9.80
2016,01,22,02,51,9.80
2016,01,22,02,52,9.80
2016,01,22,02,53,9.80
2016,01,22,02,54,9.80
2016,01,22,02,55,9.80
2016,01,22,02,56,9.80
2016,01,22,02,57,9.80
2016,01,22,02,58,9.80
2016,01,22,02,59,9.80
2016,01,22,03,00,9.80
2016,01,22,03,01,9.80
2016,01,22,03,02,9.80
2016,01,22,03,03,9.80
2016,01,22,03,04,9.80
2016,01,22,03,05,9.80
2016,01,22,03,06,9.80
2016,01,22,03,07,9.80
2016,01,22,03,08,9.90
2016,01,22,03,09,9.90
2016,01,22,03,10,9.90
2016,01,22,03,11,9.90
2016,01,22,03,12,9.90
2016,01,22,03,13,9.90
2016,01,22,03,14,9.90
2016,01,22,03,15,9.90
2016,01,22,03,16,10.00
2016,01,22,03,17,10.00
2016,01,22,03,18,10.00
2016,01,22,03,19,10.00
2016,01,22,03,20,10.10
2016,01,22,03,21,10.10
2016,01,22,03,22,10.10
2016,01,22,03,23,10.10
2016,01,22,03,24,10.10
2016,01,22,03,25,10.20
2016,01,22,03,26,10.20
2016,01,22,03,27,10.20
2016,01,22,03,28,10.20
2016,01,22,03,29,10.20
2016,01,22,03,30,10.20
2016,01,22,03,31,10.20
2016,01,22,03,32,10.20
2016,01,22,03,33,10.20
2016,01,22,03,34,10.20
2016,01,22,03,35,10.20
2016,01,22,03,36,10.30
2016,01,22,03,37,10.30
2016,01,22,03,38,10.30
2016,01,22,03,39,10.30
2016,01,22,03,40,10.30
2016,01,22,03,41,10.30
2016,01,22,03,42,10.30
2016,01,22,03,43,10.30
2016,01,22,03,44,10.30
2016,01,22,03,45,10.30
2016,01,22,03,46,10.40
2016,01,22,03,47,10.40
2016,01,22,03,48,10.40
2016,01,22,03,49,10.40
2016,01,22,03,50,10.40
2016,01,22,03,51,10.40
2016,01,22,03,52,10.40
2016,01,22,03,53,10.40
2016,01,22,03,54,10.40
2016,01,22,03,55,10.40
2016,01,22,03,56,10.40
2016,01,22,03,57,10.40
2016,01,22,03,58,10.40
2016,01,22,03,59,10.40
2016,01,22,04,00,10.40
2016,01,22,04,01,10.40
2016,01,22,04,02,10.40
2016,01,22,04,03,10.40
2016,01,22,04,04,10.40
2016,01,22,04,05,10.40
2016,01,22,04,06,10.30
2016,01,22,04,07,10.30
2016,01,22,04,08,10.30
2016,01,22,04,09,10.30
2016,01,22,04,10,10.30
2016,01,22,04,11,10.20
2016,01,22,04,12,10.20
2016,01,22,04,13,10.20
2016,01,22,04,14,10.20
2016,01,22,04,15,10.20
2016,01,22,04,16,10.10
2016,01,22,04,17,10.10
2016,01,22,04,18,10.10
2016,01,22,04,19,10.10
2016,01,22,04,20,10.10
2016,01,22,04,21,10.00
2016,01,22,04,22,10.00
2016,01,22,04,23,10.00
2016,01,22,04,24,10.00
2016,01,22,04,25,10.00
2016,01,22,04,26,9.90
2016,01,22,04,27,9.90
2016,01,22,04,28,9.90
2016,01,22,04,29,9.90
2016,01,22,04,30,9.90
2016,01,22,04,31,9.90
2016,01,22,04,32,9.90
2016,01,22,04,33,9.90
2016,01,22,04,34,9.90
2016,01,22,04,35,9.90
2016,01,22,04,36,9.90
2016,01,22,04,37,9.80
2016,01,22,04,38,9.90
2016,01,22,04,39,9.90
2016,01,22,04,40,9.90
2016,01,22,04,41,9.90
2016,01,22,04,42,9.90
2016,01,22,04,43,9.90
2016,01,22,04,44,9.80
2016,01,22,04,45,9.80
2016,01,22,04,46,9.80
2016,01,22,04,47,9.80
2016,01,22,04,48,9.80
2016,01,22,04,49,9.80
2016,01,22,04,50,9.80
2016,01,22,04,51,9.80
2016,01,22,04,52,9.80
2016,01,22,04,53,9.80
2016,01,22,04,54,9.80
2016,01,22,04,55,9.70
2016,01,22,04,56,9.70
2016,01,22,04,57,9.70
2016,01,22,04,58,9.70
2016,01,22,04,59,9.70
2016,01,22,05,00,9.70
2016,01,22,05,01,9.70
2016,01,22,05,02,9.70
2016,01,22,05,03,9.70
2016,01,22,05,04,9.70
2016,01,22,09,01,9.60
2016,01,22,09,02,9.60
2016,01,22,09,03,9.60
2016,01,22,09,04,9.60
2016,01,22,09,05,9.60
2016,01,22,09,06,9.60
2016,01,22,09,07,9.60
2016,01,22,09,08,9.60
2016,01,22,09,09,9.60
2016,01,22,09,10,9.60
2016,01,22,09,11,9.60
2016,01,22,09,12,9.60
2016,01,22,09,13,9.60
2016,01,22,09,14,9.60
2016,01,22,09,15,9.60
2016,01,22,09,16,9.60
2016,01,22,09,17,9.60
2016,01,22,09,18,9.60
2016,01,22,09,19,9.60
2016,01,22,09,20,9.60
2016,01,22,09,21,9.60
2016,01,22,09,22,9.70
2016,01,22,09,23,9.70
2016,01,22,09,24,9.70
2016,01,22,09,25,9.70
2016,01,22,09,26,9.70
2016,01,22,09,27,9.70
2016,01,22,09,28,9.70
2016,01,22,09,29,9.70
2016,01,22,09,30,9.70
2016,01,22,09,31,9.80
2016,01,22,09,32,9.80
2016,01,22,09,33,9.90
2016,01,22,09,34,9.90
2016,01,22,09,35,9.90
2016,01,22,09,36,10.00
2016,01,22,09,37,10.00
2016,01,22,09,38,10.10
2016,01,22,09,39,10.10
2016,01,22,09,40,10.10
2016,01,22,09,41,10.10
2016,01,22,09,42,10.20
2016,01,22,09,43,10.20
2016,01,22,09,44,10.20
2016,01,22,09,45,10.20
2016,01,22,09,46,10.30
2016,01,22,09,47,10.30
2016,01,22,09,48,10.30
2016,01,22,09,49,10.30
2016,01,22,09,50,10.30
2016,01,22,09,51,10.40
2016,01,22,09,52,10.40
2016,01,22,09,53,10.40
2016,01,22,09,54,10.40
2016,01,22,09,55,10.40
2016,01,22,09,56,10.40
2016,01,22,09,57,10.30
2016,01,22,09,58,10.30
2016,01,22,09,59,10.30
2016,01,22,10,00,10.30
2016,01,22,10,01,10.30
2016,01,22,10,02,10.30
2016,01,22,10,03,10.30
2016,01,22,10,04,10.30
2016,01,22,10,05,10.30
2016,01,22,10,06,10.30
2016,01,22,10,07,10.30
2016,01,22,10,08,10.30
2016,01,22,10,09,10.30
2016,01,22,10,10,10.30
2016,01,22,10,11,10.30
2016,01,22,10,12,10.30
2016,01,22,10,13,10.30
2016,01,22,10,14,10.30
2016,01,22,10,15,10.30
2016,01,22,10,16,10.30
2016,01,22,10,17,10.30
2016,01,22,10,18,10.30
2016,01,22,10,19,10.30
2016,01,22,10,20,10.30
2016,01,22,10,21,10.30
2016,01,22,10,22,10.30
2016,01,22,10,23,10.40
2016,01,22,10,24,10.40
2016,01,22,10,25,10.40
2016,01,22,10,26,10.40
2016,01,22,10,27,10.40
2016,01,22,10,28,10.40
2016,01,22,10,29,10.40
2016,01,22,10,30,10.40
2016,01,22,10,31,10.40
2016,01,22,10,32,10.40
2016,01,22,10,33,10.40
2016,01,22,10,34,10.40
2016,01,22,10,35,10.40
2016,01,22,10,36,10.40
2016,01,22,10,37,10.40
2016,01,22,10,38,10.40
2016,01,22,10,39,10.40
2016,01,22,10,40,10.50
2016,01,22,10,41,10.50
2016,01,22,10,42,10.50
2016,01,22,10,43,10.50
2016,01,22,10,44,10.50
2016,01,22,10,45,10.50
2016,01,22,10,46,10.50
2016,01,22,10,47,10.60
2016,01,22,10,48,10.60
2016,01,22,10,49,10.60
2016,01,22,10,50,10.60
2016,01,22,10,51,10.60
2016,01,22,10,52,10.60
2016,01,22,10,53,10.60
2016,01,22,10,54,10.70
2016,01,22,10,55,10.70
2016,01,22,10,56,10.70
2016,01,22,10,57,10.70
2016,01,22,10,58,10.70
2016,01,22,10,59,10.70
2016,01,22,11,00,10.70
2016,01,22,11,01,10.70
2016,01,22,11,02,10.70
2016,01,22,11,03,10.70
2016,01,22,11,04,10.70
2016,01,22,11,05,10.80
2016,01,22,11,06,10.80
2016,01,22,11,07,10.80
2016,01,22,11,08,10.80
2016,01,22,11,09,10.80
2016,01,22,11,10,10.80
2016,01,22,11,11,10.80
2016,01,22,11,12,10.80
2016,01,22,11,13,10.80
2016,01,22,11,14,10.80
2016,01,22,11,15,10.80
2016,01,22,11,16,10.80
2016,01,22,11,17,10.80
2016,01,22,11,18,10.90
2016,01,22,11,19,10.90
2016,01,22,11,20,10.90
2016,01,22,11,21,11.00
2016,01,22,11,22,11.00
2016,01,22,11,23,11.10
2016,01,22,11,24,11.10
2016,01,22,11,25,11.20
2016,01,22,11,26,11.20
2016,01,22,11,27,11.20
2016,01,22,11,28,11.30
2016,01,22,11,29,11.30
2016,01,22,11,30,11.30
2016,01,22,11,31,11.30
2016,01,22,11,32,11.30
2016,01,22,11,33,11.30
2016,01,22,11,34,11.30
2016,01,22,11,35,11.30
2016,01,22,11,36,11.30
2016,01,22,11,37,11.30
2016,01,22,11,38,11.30
2016,01,22,11,39,11.30
2016,01,22,11,40,11.20
2016,01,22,11,41,11.30
2016,01,22,11,42,11.30
2016,01,22,11,43,11.30
2016,01,22,11,44,11.30
2016,01,22,11,45,11.30
2016,01,22,11,46,11.30
2016,01,22,11,47,11.30
2016,01,22,11,48,11.30
2016,01,22,11,49,11.40
2016,01,22,11,50,11.40
2016,01,22,11,51,11.50
2016,01,22,11,52,11.50
2016,01,22,11,53,11.50
2016,01,22,11,54,11.60
2016,01,22,11,55,11.60
2016,01,22,11,56,11.60
2016,01,22,11,57,11.70
2016,01,22,11,58,11.70
2016,01,22,11,59,11.70
2016,01,22,12,00,11.70
2016,01,22,12,01,11.70
2016,01,22,12,02,11.80
2016,01,22,12,03,11.80
2016,01,22,12,04,11.80
2016,01,22,12,05,11.80
2016,01,22,12,06,11.80
2016,01,22,12,07,11.90
2016,01,22,12,08,11.90
2016,01,22,12,09,11.90
2016,01,22,12,10,12.00
2016,01,22,12,11,12.00
2016,01,22,12,12,12.00
2016,01,22,12,13,12.10
2016,01,22,12,14,12.10
2016,01,22,12,15,12.10
2016,01,22,12,16,12.10
2016,01,22,12,17,12.10
2016,01,22,12,18,12.10
2016,01,22,12,19,12.10
2016,01,22,12,20,12.10
2016,01,22,12,21,12.10
2016,01,22,12,22,12.10
2016,01,22,12,23,12.10
2016,01,22,12,24,12.10
2016,01,22,12,25,12.20
2016,01,22,12,26,12.20
2016,01,22,12,27,12.20
2016,01,22,12,28,12.20
2016,01,22,12,29,12.20
2016,01,22,12,30,12.30
2016,01,22,12,31,12.30
2016,01,22,12,32,12.30
2016,01,22,12,33,12.30
2016,01,22,12,34,12.30
2016,01,22,12,35,12.40
2016,01,22,12,36,12.40
2016,01,22,12,37,12.40
2016,01,22,12,38,12.40
2016,01,22,12,39,12.40
2016,01,22,12,40,12.50
2016,01,22,12,41,12.50
2016,01,22,12,42,12.50
2016,01,22,12,43,12.50
2016,01,22,12,44,12.50
2016,01,22,12,45,12.50
2016,01,22,12,46,12.50
2016,01,22,12,47,12.50
2016,01,22,12,48,12.50
2016,01,22,12,49,12.50
2016,01,22,12,50,12.50
2016,01,22,12,51,12.60
2016,01,22,12,52,12.60
2016,01,22,12,53,12.60
2016,01,22,12,54,12.60
2016,01,22,12,55,12.50
2016,01,22,12,56,12.60
2016,01,22,12,57,12.60
2016,01,22,12,58,12.60
2016,01,22,12,59,12.60
2016,01,22,13,00,12.60
2016,01,22,13,01,12.60
2016,01,22,13,02,12.50
2016,01,22,13,03,12.50
2016,01,22,13,04,12.50
2016,01,22,13,05,12.50
2016,01,22,13,06,12.40
2016,01,22,13,07,12.40
2016,01,22,13,08,12.40
2016,01,22,13,09,12.40
2016,01,22,13,10,12.40
2016,01,22,13,11,12.50
2016,01,22,13,12,12.50
2016,01,22,13,13,12.50
2016,01,22,13,14,12.50
2016,01,22,13,15,12.50
2016,01,22,13,16,12.50
2016,01,22,13,17,12.50
2016,01,22,13,18,12.50
2016,01,22,13,19,12.50
2016,01,22,13,20,12.50
2016,01,22,13,21,12.50
2016,01,22,13,22,12.50
2016,01,22,13,23,12.40
2016,01,22,13,24,12.40
2016,01,22,13,25,12.40
2016,01,22,13,26,12.40
2016,01,22,13,27,12.40
2016,01,22,13,28,12.50
2016,01,22,13,29,12.50
2016,01,22,13,30,12.60
2016,01,22,13,31,12.60
2016,01,22,13,32,12.60
2016,01,22,13,33,12.60
2016,01,22,13,34,12.60
2016,01,22,13,35,12.60
2016,01,22,13,36,12.70
2016,01,22,13,37,12.70
2016,01,22,13,38,12.70
2016,01,22,13,39,12.70
2016,01,22,13,40,12.70
2016,01,22,13,41,12.70
2016,01,22,13,42,12.80
2016,01,22,13,43,12.80
2016,01,22,13,44,12.80
2016,01,22,13,45,12.80
2016,01,22,13,46,12.80
2016,01,22,13,47,12.80
2016,01,22,13,48,12.80
2016,01,22,13,49,12.80
2016,01,22,13,50,12.80
2016,01,22,13,51,12.80
2016,01,22,13,52,12.80
2016,01,22,13,53,12.80
2016,01,22,13,54,12.80
2016,01,22,13,55,12.80
2016,01,22,13,56,12.80
2016,01,22,13,57,12.80
2016,01,22,13,58,12.80
2016,01,22,13,59,12.80
2016,01,22,14,00,12.80
2016,01,22,14,01,12.70
2016,01,22,14,02,12.70
2016,01,22,14,03,12.70
2016,01,22,14,04,12.70
2016,01,22,14,05,12.70
2016,01,22,14,06,12.70
2016,01,22,14,07,12.70
2016,01,22,14,08,12.70
2016,01,22,14,09,12.60
2016,01,22,14,10,12.60
2016,01,22,14,11,12.60
2016,01,22,14,12,12.60
2016,01,22,14,13,12.50
2016,01,22,14,14,12.50
2016,01,22,14,15,12.50
2016,01,22,14,16,12.50
2016,01,22,14,17,12.50
2016,01,22,14,18,12.50
2016,01,22,14,19,12.50
2016,01,22,14,20,12.60
2016,01,22,14,21,12.60
2016,01,22,14,22,12.60
2016,01,22,14,23,12.60
2016,01,22,14,24,12.70
2016,01,22,14,25,12.70
2016,01,22,14,26,12.70
2016,01,22,14,27,12.70
2016,01,22,14,28,12.70
2016,01,22,14,29,12.70
2016,01,22,14,30,12.70
2016,01,22,14,31,12.70
2016,01,22,14,32,12.70
2016,01,22,14,33,12.60
2016,01,22,14,34,12.60
2016,01,22,14,35,12.60
2016,01,22,14,36,12.50
2016,01,22,14,37,12.50
2016,01,22,14,38,12.40
2016,01,22,14,39,12.40
2016,01,22,14,40,12.40
2016,01,22,14,41,12.30
2016,01,22,14,42,12.30
2016,01,22,14,43,12.30
2016,01,22,14,44,12.30
2016,01,22,14,45,12.20
2016,01,22,14,46,12.20
2016,01,22,14,47,12.20
2016,01,22,14,48,12.20
2016,01,22,14,49,12.20
2016,01,22,14,50,12.20
2016,01,22,14,51,12.20
2016,01,22,14,52,12.20
2016,01,22,14,53,12.20
2016,01,22,14,54,12.20
2016,01,22,14,55,12.20
2016,01,22,14,56,12.20
2016,01,22,14,57,12.20
2016,01,22,14,58,12.20
2016,01,22,14,59,12.20
2016,01,22,15,00,12.20
2016,01,22,15,01,12.20
2016,01,22,15,02,12.20
2016,01,22,15,03,12.10
2016,01,22,15,04,12.10
2016,01,22,15,05,12.10
2016,01,22,15,06,12.10
2016,01,22,15,07,12.10
2016,01,22,15,08,12.10
2016,01,22,15,09,12.10
2016,01,22,15,10,12.10
2016,01,22,15,11,12.10
2016,01,22,15,12,12.10
2016,01,22,15,13,12.10
2016,01,22,15,14,12.10
2016,01,22,15,15,12.10
2016,01,22,15,16,12.10
2016,01,22,15,17,12.10
2016,01,22,15,18,12.10
2016,01,22,15,19,12.00
2016,01,22,15,20,12.00
2016,01,22,15,21,12.00
2016,01,22,15,22,12.00
2016,01,22,15,23,12.00
2016,01,22,15,24,12.00
2016,01,22,15,25,12.00
2016,01,22,15,26,12.00
2016,01,22,15,27,12.00
2016,01,22,15,28,12.00
2016,01,22,15,29,12.00
2016,01,22,15,30,12.00
2016,01,22,15,31,12.00
2016,01,22,15,32,11.90
2016,01,22,15,33,11.90
2016,01,22,15,34,11.90
2016,01,22,15,35,11.90
2016,01,22,15,36,11.90
2016,01,22,15,37,11.90
2016,01,22,15,38,11.90
2016,01,22,15,39,11.90
2016,01,22,15,40,11.90
2016,01,22,15,41,11.80
2016,01,22,15,42,11.80
2016,01,22,15,43,11.80
2016,01,22,15,44,11.80
2016,01,22,15,45,11.80
2016,01,22,15,46,11.80
2016,01,22,15,47,11.80
2016,01,22,15,48,11.80
2016,01,22,15,49,11.80
2016,01,22,15,50,11.80
2016,01,22,15,51,11.80
2016,01,22,15,52,11.80
2016,01,22,15,53,11.80
2016,01,22,15,54,11.80
2016,01,22,15,55,11.70
2016,01,22,15,56,11.70
2016,01,22,15,57,11.70
2016,01,22,15,58,11.70
2016,01,22,15,59,11.70
2016,01,22,16,00,11.70
2016,01,22,16,01,11.70
2016,01,22,16,02,11.70
2016,01,22,16,03,11.70
2016,01,22,16,04,11.70
2016,01,22,16,05,11.70
2016,01,22,16,06,11.60
2016,01,22,16,07,11.60
2016,01,22,16,08,11.60
2016,01,22,16,09,11.60
2016,01,22,16,10,11.60
2016,01,22,16,11,11.60
2016,01,22,16,12,11.60
2016,01,22,16,13,11.60
2016,01,22,16,14,11.60
2016,01,22,16,15,11.50
2016,01,22,16,16,11.50
2016,01,22,16,17,11.50
2016,01,22,16,18,11.50
2016,01,22,16,19,11.50
2016,01,22,16,20,11.50
2016,01,22,16,21,11.50
2016,01,22,16,22,11.50
2016,01,22,16,23,11.40
2016,01,22,16,24,11.40
2016,01,22,16,25,11.40
2016,01,22,16,26,11.40
2016,01,22,16,27,11.40
2016,01,22,16,28,11.30
2016,01,22,16,29,11.30
2016,01,22,16,30,11.30
2016,01,22,16,31,11.30
2016,01,22,16,32,11.30
2016,01,22,16,33,11.20
2016,01,22,16,34,11.20
2016,01,22,16,35,11.20
2016,01,22,16,36,11.20
2016,01,22,16,37,11.10
2016,01,22,16,38,11.10
2016,01,22,16,39,11.10
2016,01,22,16,40,11.10
2016,01,22,16,41,11.00
2016,01,22,16,42,11.00
2016,01,22,16,43,11.00
2016,01,22,16,44,10.90
2016,01,22,16,45,10.90
2016,01,22,16,46,10.90
2016,01,22,16,47,10.90
2016,01,22,16,48,10.80
2016,01,22,16,49,10.80
2016,01,22,16,50,10.80
2016,01,22,16,51,10.80
2016,01,22,16,52,10.80
2016,01,22,16,53,10.70
2016,01,22,16,54,10.70
2016,01,22,16,55,10.70
2016,01,22,16,56,10.70
2016,01,22,16,57,10.70
2016,01,22,16,58,10.60
2016,01,22,16,59,10.60
2016,01,22,17,00,10.60
2016,01,22,17,01,10.60
2016,01,22,17,02,10.60
2016,01,22,17,03,10.60
2016,01,22,17,04,10.50
2016,01,22,17,05,10.50
2016,01,22,17,06,10.50
2016,01,22,17,07,10.50
2016,01,22,17,08,10.50
2016,01,22,17,09,10.50
2016,01,22,17,10,10.50
2016,01,22,17,11,10.50
2016,01,22,17,12,10.40
2016,01,22,17,13,10.40
2016,01,22,17,14,10.40
2016,01,22,17,15,10.40
2016,01,22,17,16,10.40
2016,01,22,17,17,10.40
2016,01,22,17,18,10.40
2016,01,22,17,19,10.40
2016,01,22,17,20,10.40
2016,01,22,17,21,10.40
2016,01,22,17,22,10.40
2016,01,22,17,23,10.30
2016,01,22,17,24,10.30
2016,01,22,17,25,10.30
2016,01,22,17,26,10.30
2016,01,22,17,27,10.30
2016,01,22,17,28,10.20
2016,01,22,17,29,10.20
2016,01,22,17,30,10.20
2016,01,22,17,31,10.20
2016,01,22,17,32,10.20
2016,01,22,17,33,10.20
2016,01,22,17,34,10.10
2016,01,22,17,35,10.10
2016,01,22,17,36,10.10
2016,01,22,17,37,10.10
2016,01,22,17,38,10.10
2016,01,22,17,39,10.00
2016,01,22,17,40,10.00
2016,01,22,17,41,10.00
2016,01,22,17,42,9.90
2016,01,22,17,43,9.90
2016,01,22,17,44,9.90
2016,01,22,17,45,9.80
2016,01,22,17,46,9.80
2016,01,22,17,47,9.80
2016,01,22,17,48,9.80
2016,01,22,17,49,9.80
2016,01,22,17,50,9.70
2016,01,22,17,51,9.70
2016,01,22,17,52,9.70
2016,01,22,17,53,9.70
2016,01,22,17,54,9.70
2016,01,22,17,55,9.70
2016,01,22,17,56,9.60
2016,01,22,17,57,9.60
2016,01,22,17,58,9.60
2016,01,22,17,59,9.60
2016,01,22,18,00,9.60
2016,01,22,18,01,9.60
2016,01,22,18,02,9.50
2016,01,22,18,03,9.50
2016,01,22,18,04,9.50
2016,01,22,18,05,9.50
2016,01,22,18,06,9.40
2016,01,22,18,07,9.40
2016,01,22,18,08,9.40
2016,01,22,18,09,9.40
2016,01,22,18,10,9.40
2016,01,22,18,11,9.40
2016,01,22,18,12,9.30
2016,01,22,18,13,9.30
2016,01,22,18,14,9.30
2016,01,22,18,15,9.30
2016,01,22,18,16,9.30
2016,01,22,18,17,9.30
2016,01,22,18,18,9.30
2016,01,22,18,19,9.30
2016,01,22,18,20,9.30
2016,01,22,18,21,9.20
2016,01,22,18,22,9.20
2016,01,22,18,23,9.20
2016,01,22,18,24,9.20
2016,01,22,18,25,9.20
2016,01,22,18,26,9.20
2016,01,22,18,27,9.20
2016,01,22,18,28,9.20
2016,01,22,18,29,9.20
2016,01,22,18,30,9.20
2016,01,22,18,31,9.20
2016,01,22,18,32,9.20
2016,01,22,18,33,9.20
2016,01,22,18,34,9.20
2016,01,22,18,35,9.10
2016,01,22,18,36,9.10
2016,01,22,18,37,9.10
2016,01,22,18,38,9.10
2016,01,22,18,39,9.10
2016,01,22,18,40,9.10
2016,01,22,18,41,9.10
2016,01,22,18,42,9.10
2016,01,22,18,43,9.10
2016,01,22,18,44,9.00
2016,01,22,18,45,9.00
2016,01,22,18,46,9.00
2016,01,22,18,47,9.00
2016,01,22,18,48,9.00
2016,01,22,18,49,8.90
2016,01,22,18,50,8.90
2016,01,22,18,51,8.90
2016,01,22,18,52,8.90
2016,01,22,18,53,8.90
2016,01,22,18,54,8.80
2016,01,22,18,55,8.80
2016,01,22,18,56,8.80
2016,01,22,18,57,8.80
2016,01,22,18,58,8.80
2016,01,22,18,59,8.70
2016,01,22,19,00,8.70
2016,01,22,19,01,8.70
2016,01,22,19,02,8.70
2016,01,22,19,03,8.70
2016,01,22,19,04,8.70
2016,01,22,19,05,8.70
2016,01,22,19,06,8.70
2016,01,22,19,07,8.70
2016,01,22,19,08,8.70
2016,01,22,19,09,8.70
2016,01,22,19,10,8.70
2016,01,22,19,11,8.70
2016,01,22,19,12,8.70
2016,01,22,19,13,8.70
2016,01,22,19,14,8.70
2016,01,22,19,15,8.70
2016,01,22,19,16,8.70
2016,01,22,19,17,8.70
2016,01,22,19,18,8.70
2016,01,22,19,19,8.70
2016,01,22,19,20,8.70
2016,01,22,19,21,8.70
2016,01,22,19,22,8.70
2016,01,22,19,23,8.70
2016,01,22,19,24,8.70
2016,01,22,19,25,8.70
2016,01,22,19,26,8.70
2016,01,22,19,27,8.80
2016,01,22,19,28,8.80
2016,01,22,19,29,8.80
2016,01,22,19,30,8.80
2016,01,22,19,31,8.80
2016,01,22,19,32,8.80
2016,01,22,19,33,8.80
2016,01,22,19,34,8.80
2016,01,22,19,35,8.80
2016,01,22,19,36,8.80
2016,01,22,19,37,8.80
2016,01,22,19,38,8.80
2016,01,22,19,39,8.80
2016,01,22,19,40,8.80
2016,01,22,19,41,8.80
2016,01,22,19,42,8.90
2016,01,22,19,43,8.90
2016,01,22,19,44,8.90
2016,01,22,19,45,8.90
2016,01,22,19,46,8.90
2016,01,22,19,47,8.90
2016,01,22,19,48,8.90
2016,01,22,19,49,8.90
2016,01,22,19,50,8.90
2016,01,22,19,51,8.90
2016,01,22,19,52,8.90
2016,01,22,19,53,8.90
2016,01,22,19,54,9.00
2016,01,22,19,55,9.00
2016,01,22,19,56,9.00
2016,01,22,19,57,9.00
2016,01,22,19,58,9.00
2016,01,22,19,59,9.00
2016,01,22,20,00,9.00
2016,01,22,20,01,9.00
2016,01,22,20,02,9.10
2016,01,22,20,03,9.00
2016,01,22,20,04,9.10
2016,01,22,20,05,9.10
2016,01,22,20,06,9.10
2016,01,22,20,07,9.10
2016,01,22,20,08,9.10
2016,01,22,20,09,9.10
2016,01,22,20,10,9.10
2016,01,22,20,11,9.10
2016,01,22,20,12,9.10
2016,01,22,20,13,9.10
2016,01,22,20,14,9.10
2016,01,22,20,15,9.10
2016,01,22,20,16,9.20
2016,01,22,20,17,9.20
2016,01,22,20,18,9.20
2016,01,22,20,19,9.20
2016,01,22,20,20,9.20
2016,01,22,20,21,9.20
2016,01,22,20,22,9.20
2016,01,22,20,23,9.20
2016,01,22,20,24,9.20
2016,01,22,20,25,9.20
2016,01,22,20,26,9.20
2016,01,22,20,27,9.20
2016,01,22,20,28,9.20
2016,01,22,20,29,9.20
2016,01,22,20,30,9.20
2016,01,22,20,31,9.20
2016,01,22,20,32,9.20
2016,01,22,20,33,9.20
2016,01,22,20,34,9.20
2016,01,22,20,35,9.20
2016,01,22,20,36,9.20
2016,01,22,20,37,9.10
2016,01,22,20,38,9.20
2016,01,22,20,39,9.20
2016,01,22,20,40,9.20
2016,01,22,20,41,9.20
2016,01,22,20,42,9.20
2016,01,22,20,43,9.20
2016,01,22,20,44,9.20
2016,01,22,20,45,9.20
2016,01,22,20,46,9.20
2016,01,22,20,47,9.20
2016,01,22,20,48,9.20
2016,01,22,20,49,9.10
2016,01,22,20,50,9.10
2016,01,22,20,51,9.10
2016,01,22,20,52,9.10
2016,01,22,20,53,9.10
2016,01,22,20,54,9.10
2016,01,22,20,55,9.10
2016,01,22,20,56,9.10
2016,01,22,20,57,9.10
2016,01,22,20,58,9.10
2016,01,22,20,59,9.10
2016,01,22,21,00,9.10
2016,01,22,21,01,9.10
2016,01,22,21,02,9.10
2016,01,22,21,03,9.10
2016,01,22,21,04,9.10
2016,01,22,21,05,9.10
2016,01,22,21,06,9.10
2016,01,22,21,07,9.10
2016,01,22,21,08,9.10
2016,01,22,21,09,9.10
2016,01,22,21,10,9.10
2016,01,22,21,11,9.10
2016,01,22,21,12,9.10
2016,01,22,21,13,9.10
2016,01,22,21,14,9.10
2016,01,22,21,15,9.10
2016,01,22,21,16,9.10
2016,01,22,21,17,9.10
2016,01,22,21,18,9.10
2016,01,22,21,19,9.10
2016,01,22,21,20,9.10
2016,01,22,21,21,9.10
2016,01,22,21,22,9.10
2016,01,22,21,23,9.10
2016,01,22,21,24,9.10
2016,01,22,21,25,9.10
2016,01,22,21,26,9.10
2016,01,22,21,27,9.10
2016,01,22,21,28,9.10
2016,01,22,21,29,9.10
2016,01,22,21,30,9.10
2016,01,22,21,31,9.10
2016,01,22,21,32,9.10
2016,01,22,21,33,9.10
2016,01,22,21,34,9.10
2016,01,22,21,35,9.10